#timestamp,LO_Frequency,Hit,StdDev 
1508684415.8,286047000.3,N
1508684435.6,286047000.6,N
1508684455.4,286047000.0,N
1508684475.3,286046999.9,N
1508684495.1,286047000.5,N
1508684515.9,286047001.1,N
1508684535.7,286046998.6,N
1508684555.5,286047001.2,N
1508684575.4,286046998.1,N
1508684595.2,286047001.2,N
1508684615.0,286047001.2,N
1508684615.9,286047001.2,N
1508684635.8,286046998.1,N
1508684655.6,286046998.3,N
1508684675.4,286047000.6,N
1508684695.3,286047000.6,N
1508684715.1,286047001.0,N
1508684735.9,286047000.4,N
1508684755.7,286047000.0,N
1508684775.5,286047002.8,N
1508684795.4,286047002.8,N
1508684815.2,286046999.9,N
1508684835.0,286047002.4,N
1508684835.9,286047002.4,N
1508684855.8,286046998.2,N
1508684875.6,286047000.9,N
1508684895.5,286047000.5,N
1508684915.3,286047002.7,N
1508684935.1,286047000.2,N
1508684955.9,286046999.9,N
1508684975.7,286047000.1,N
1508684995.5,286047000.5,N
1508685015.4,286047001.2,N
1508685035.2,286046998.4,N
1508685055.1,286046998.6,N
1508685056.0,286046998.6,N
1508685075.8,286046999.2,N
1508685095.6,286046999.2,N
1508685115.5,286046996.7,N
1508685135.3,286046999.6,N
1508685155.1,286046997.5,N
1508685175.9,286046994.9,Y
1508685195.7,286046996.7,P
1508685215.6,286046997.5,N
1508685235.4,286046997.8,N
1508685255.2,286046998.0,N
1508685275.1,286046995.6,Y
1508685276.0,286046995.6,P
1508685295.8,286046997.6,N
1508685315.7,286046995.3,P
1508685335.5,286046995.3,Y
1508685355.3,286046998.6,P
1508685375.2,286047001.2,N
1508685395.0,286046998.6,N
1508685395.9,286046998.6,N
1508685415.8,286046998.8,N
1508685435.6,286046998.5,N
1508685455.4,286047000.5,N
1508685475.3,286046999.7,N
1508685495.1,286047001.3,N
1508685515.8,286047000.7,N
1508685535.7,286047002.3,N
1508685555.5,286046999.8,N
1508685575.4,286047002.1,N
1508685595.2,286047000.7,N
1508685615.0,286047000.0,N
1508685615.9,286047000.0,N
1508685635.8,286047002.8,N
1508685655.6,286047000.0,N
1508685675.4,286047001.0,N
1508685695.3,286047000.0,N
1508685715.1,286047001.1,N
1508685735.9,286046999.8,N
1508685755.7,286047000.5,N
1508685775.5,286047000.5,N
1508685795.4,286047002.4,N
1508685815.2,286047002.7,N
1508685835.0,286047002.2,N
1508685835.9,286047002.2,N
1508685855.8,286047002.7,N
1508685875.6,286047004.0,N
1508685895.4,286047001.4,N
1508685915.3,286047001.6,N
1508685935.1,286047004.3,Y
1508685955.9,286047003.6,P
1508685975.7,286047001.7,N
1508685995.5,286047003.2,N
1508686015.4,286047007.5,Y
1508686035.2,286047004.1,P
1508686055.1,286047003.8,P
1508686056.0,286047003.8,P
1508686075.8,286047003.2,Y
1508686095.6,286047000.6,P
1508686115.5,286047000.9,N
1508686135.3,286047002.2,N
1508686155.1,286047002.6,N
1508686175.9,286047002.1,N
1508686195.7,286047002.4,N
1508686215.6,286047002.4,N
1508686235.4,286047002.6,N
1508686255.2,286047000.2,N
1508686275.1,286047000.0,N
1508686276.0,286047000.0,N
1508686295.8,286047000.1,N
1508686315.6,286047000.4,N
1508686335.5,286047000.1,N
1508686355.3,286047000.3,N
1508686375.2,286047001.0,N
1508686395.9,286046998.2,N
1508686415.7,286047000.6,N
1508686435.6,286047000.1,N
1508686455.4,286047000.2,N
1508686475.3,286047001.9,N
1508686495.1,286047002.2,N
1508686496.0,286047002.2,N
1508686515.8,286047001.9,N
1508686535.7,286047002.9,N
1508686555.5,286047004.1,Y
1508686575.4,286047001.8,P
1508686595.2,286047002.4,P
1508686615.0,286047001.9,P
1508686615.9,286047001.9,Y
1508686635.8,286047002.8,P
1508686655.6,286047003.9,P
1508686675.4,286047003.8,P
1508686695.3,286047004.2,Y
1508686715.1,286046998.2,P
1508686735.9,286047000.5,N
1508686755.7,286046999.9,N
1508686775.5,286046999.9,N
1508686795.4,286047000.1,N
1508686815.2,286046999.8,N
1508686835.1,286047001.9,N
1508686836.0,286047001.9,N
1508686855.8,286047001.6,N
1508686875.6,286047003.8,N
1508686895.5,286047003.0,N
1508686915.3,286047003.6,N
1508686935.2,286047004.4,N
1508686955.9,286047002.7,N
1508686975.7,286047001.4,N
1508686995.6,286047005.5,Y
1508687015.4,286047001.3,P
1508687035.2,286047003.5,P
1508687055.1,286047003.9,P
1508687056.0,286047003.9,Y
1508687075.8,286047000.2,P
1508687095.7,286047004.3,P
1508687115.5,286047001.6,N
1508687135.3,286047001.9,N
1508687155.2,286047003.7,N
1508687175.0,286047003.1,N
1508687175.9,286047003.1,N
1508687195.8,286047001.4,N
1508687215.6,286047004.3,Y
1508687235.4,286047004.4,P
1508687255.3,286047003.8,P
1508687275.1,286047004.1,P
1508687295.9,286047003.3,Y
1508687315.7,286047000.5,P
1508687335.5,286047000.3,N
1508687355.4,286046999.9,N
1508687375.2,286046998.1,N
1508687395.1,286046998.1,N
1508687396.0,286046998.1,N
1508687415.8,286047002.8,N
1508687435.6,286046999.8,N
1508687455.5,286047000.2,N
1508687475.3,286047001.8,N
1508687495.1,286047004.2,N
1508687515.9,286047011.9,Y
1508687535.7,286047002.6,P
1508687555.6,286047002.2,N
1508687575.4,286047001.6,N
1508687595.2,286047001.7,N
1508687615.1,286047001.3,N
1508687616.0,286047001.3,N
1508687635.8,286047003.8,Y
1508687655.6,286047000.2,P
1508687675.5,286046999.8,N
1508687695.3,286047002.7,P
1508687715.2,286047000.1,N
1508687735.9,286047000.0,N
1508687755.7,286047002.1,N
1508687775.6,286047001.9,N
1508687795.4,286047004.2,Y
1508687815.2,286047002.5,P
1508687835.1,286047002.3,P
1508687836.0,286047002.3,P
1508687855.8,286047002.4,Y
1508687875.7,286047000.7,P
1508687895.5,286047002.7,P
1508687915.3,286047000.2,N
1508687935.2,286047002.4,N
1508687955.0,286047002.4,N
1508687955.9,286047002.4,N
1508687975.7,286047002.5,N
1508687995.6,286047001.3,N
